This demonstration page uses our WeatherBlox Daily Observations layout. Learn more.

Left ArrowRight Arrow

Hourly Observations for May 11, 2021

Temp ( °F °C ) Dew Point ( °F °C ) Humidity (%) Winds ( mph kmh ) Pressure ( in mb ) Visibility ( mi km ) Precip ( " mm )
12:53 am 00:53 Clear 67 19.4 35 1.7 31 31 NNW 6 9 29.87 1012 10 16 0.00 0.00
1:53 am 01:53 Clear 67 19.4 37 2.8 33 33 NNW 6 9 29.85 1011 10 16 0.00 0.00
2:53 am 02:53 Clear 67 19.4 36 2.2 32 32 NNW 6 9 29.85 1011 10 16 0.00 0.00
3:53 am 03:53 Clear 68 20 35 1.7 30 30 NNW 6 9 29.85 1011 10 16 0.00 0.00
4:53 am 04:53 Clear 68 20 35 1.7 30 30 N 8 13 29.86 1011 10 16 0.00 0.00
5:53 am 05:53 Clear 68 20 35 1.7 30 30 N 8 13 29.87 1011 10 16 0.00 0.00
6:53 am 06:53 Sunny 71 21.7 36 2.2 28 28 N 10 17 29.88 1012 10 16 0.00 0.00
7:53 am 07:53 Sunny 73 22.8 36 2.2 26 26 N 13 20 29.89 1012 10 16 0.00 0.00
8:53 am 08:53 Sunny 76 24.4 35 1.7 23 23 N 14 22 29.89 1012 10 16 0.00 0.00
9:53 am 09:53 Sunny 79 26.1 33 0.6 19 19 NNW 12 19 29.89 1012 10 16 0.00 0.00
10:53 am 10:53 Sunny 82 27.8 33 0.6 17 17 N 10 17 29.88 1012 10 16 0.00 0.00
11:53 am 11:53 Sunny 85 29.4 33 0.6 15 15 NNW 9 15 29.87 1012 10 16 0.00 0.00
12:53 pm 12:53 Sunny 88 31.1 31 -0.6 13 13 VRB 6 9 29.85 1011 10 16 0.00 0.00
1:53 pm 13:53 Sunny 90 32.2 28 -2.2 11 11 NNE 8 13 29.84 1011 10 16 0.00 0.00
2:53 pm 14:53 Sunny 90 32.2 27 -2.8 10 10 NW 9 15 29.83 1010 10 16 0.00 0.00
3:53 pm 15:53 Sunny 92 33.3 26 -3.3 9 9 undefined N/A 29.81 1010 10 16 0.00 0.00
4:53 pm 16:53 Sunny 92 33.3 26 -3.3 9 9 VRB 7 11 29.80 1009 10 16 0.00 0.00
5:53 pm 17:53 Sunny 93 33.9 26 -3.3 9 9 NE 9 15 29.79 1009 10 16 0.00 0.00
6:53 pm 18:53 Sunny 90 32.2 27 -2.8 10 10 Calm 29.78 1009 10 16 0.00 0.00
7:53 pm 19:53 Sunny 85 29.4 37 2.8 18 18 SW 5 7 29.79 1009 10 16 0.00 0.00
8:53 pm 20:53 Clear 78 25.6 41 5 27 27 Calm 29.80 1009 10 16 0.00 0.00
9:53 pm 21:53 Clear 70 21.1 45 7.2 41 41 NE 5 7 29.82 1010 10 16 0.00 0.00
10:53 pm 22:53 Clear 71 21.7 41 5 34 34 undefined N/A 29.84 1011 10 16 0.00 0.00
11:53 pm 23:53 Clear 65 18.3 42 5.6 43 43 NW 3 6 29.85 1011 10 16 0.00 0.00

Powered by AerisWeather